Overview Statistics Trail Chart Weather Telemetry Raw packets
 

This is the latest recevied weather packets stored in our database for station/object KD2FKI. If no packets are shown the sender has not sent any weather packets the latest 10 day(s).

<< 29 30 31 32 33 34 35 >>
Time Temp. Humidity Pressure Rain* Wind** Luminosity Snow
1777755637 15° C 43% - 0 mm - - -
1777755044 15.56° C 45% - 0 mm - - -
1777754471 15° C 44% - 0 mm - - -
1777753861 15° C 43% - 0 mm - - -
1777753232 15.56° C 43% - 0 mm - - -
1777752640 15.56° C 42% - 0 mm - - -
1777752049 14.44° C 43% - 0 mm - - -
1777751437 15.56° C 40% - 0 mm - - -
1777750852 16.67° C 39% - 0 mm - - -
1777750234 16.11° C 41% - 0 mm - - -
1777749646 16.67° C 41% - 0 mm - - -
1777749033 15.56° C 40% - 0 mm - - -
1777748441 17.22° C 40% - 0 mm - - -
1777747851 16.67° C 39% - 0 mm - - -
1777747238 17.22° C 39% - 0 mm - - -
1777746664 15.56° C 42% - 0 mm - - -
1777746039 14.44° C 43% - 0 mm - - -
1777745443 15.56° C 41% - 0 mm - - -
1777744851 15.56° C 41% - 0 mm - - -
1777744242 15° C 42% - 0 mm - - -
1777743632 15.56° C 42% - 0 mm - - -
1777743038 15.56° C 44% - 0 mm - - -
1777742447 15° C 43% - 0 mm - - -
1777741835 14.44° C 43% - 0 mm - - -
1777741243 15° C 44% - 0 mm - - -

* Rain latest hour (hover to see other rain measurements)
** Current wind speed in m/s (hover to see current wind gust speed)